Hourly Data Report for October 02, 2015

All times are specified in Local Standard Time (LST). Add 1 hour to adjust for Daylight Saving Time where and when it is observed.

PANGNIRTUNG
NUNAVUT

66°08'36.300" N
65°42'40.500" W
22.60 m
2403049
71826
WXP

Download Data

Hourly Data (October 2015)
Hourly Data Report for October 2, 2015
Temp Definition
°C
Dew Point Temp Definition
°C
Rel Hum Definition
%
Wind Dir Definition
10's deg

Wind Spd Definition
km/h
Visibility Definition
km
Stn Press Definition
kPa
Hmdx Definition


Wind Chill Definition


Weather Definition


TIME
00:00 -1.1 -1.2 99   0   101.98     LegendNANA
01:00 -1.2 -1.2 100   0   101.86     LegendNANA
02:00 -1.3 -1.3 100   0   101.77     LegendNANA
03:00 -0.8 -0.8 100   0   101.67     LegendNANA
04:00 1.0 0.1 94 25 27   101.55     LegendNANA
05:00 0.4 0.1 98 27 27   101.49     LegendNANA
06:00 0.9 0.5 97 25 25   101.49     LegendNANA
07:00 1.3 0.1 92 25 32   101.49     LegendNANA
08:00 1.8 0.1 89 24 32   101.51     LegendNANA
09:00 1.4 -2.0 78 28 31   101.65     LegendNANA
10:00 1.3 -2.8 74 29 24   101.76     LegendNANA
11:00 0.8 -2.4 79 27 28   101.81     LegendNANA
12:00 1.0 -3.6 71 28 23   101.91     LegendNANA
13:00 0.9 -3.1 75 30 19   102.01     LegendNANA
14:00 1.1 -3.1 73 29 19   102.08     LegendNANA
15:00 0.8 -4.0 70 28 25   102.20     LegendNANA
16:00 0.9 -4.3 68 30 14   102.27     LegendNANA
17:00 -0.3 -6.2 64 28 17   102.36   -5 LegendNANA
18:00 -0.7 -6.1 67 25 18   102.39   -6 LegendNANA
19:00 -0.1 -5.6 66 24 14   102.46   -4 LegendNANA
20:00 -0.7 -4.6 75 25 19   102.49   -6 LegendNANA
21:00 -0.2 -4.7 71 25 11   102.48   -4 LegendNANA
22:00 -0.9 -4.6 76 24 12   102.49   -5 LegendNANA
23:00 -0.8 -4.5 76 24 14   102.51   -5 LegendNANA

Notes on Data Quality.

Legend

  • E = Estimated
  • M = Missing
  • NA = Not Available
  • ‡ = Partner data that is not subject to review by the National Climate Archives
Date modified: